Location: Bjelajci
(45.0103°N, 16.1758°E)
Time: 19:57:02
(UTC+00:00)

IRS-1D - Pass Details

Date: 14 July 2020
Orbit: 739 x 817 km, 98.6° (Epoch: 06 August)

Event Time Altitude Azimuth Distance (km) Brightness Sun altitude
Rises 00:39:13 0° 20° (NNE) 3,193 8.3 -19.7°
Reaches altitude 10° 00:41:38 10° 27° (NNE) 2,260 7.2 -19.5°
Maximum altitude 00:46:20 42° 99° (E) 1,052 4.3 -19.2°
Enters shadow 00:49:01 23° 157° (SSE) 1,555 4.7 -19.0°
